Location: Newark
(7.0858°N, 171.3717°E)
Time: 07:57:38
(UTC+00:00)

Courier 1B - Pass Details

Date: 04 December 2020
Orbit: 962 x 1209 km, 28.3° (Epoch: 20 January)

Event Time Altitude Azimuth Distance (km) Brightness Sun altitude
Rises 05:24:16 0° 242° (WSW) 3,718 12.8 11.1°
Reaches altitude 10° 05:26:59 10° 243° (WSW) 2,741 13.6 10.5°
Maximum altitude 05:33:35 84° 330° (NNW) 971 7.8 9.0°
Drops below altitude 10° 05:40:03 10° 59° (ENE) 2,682 9.2 7.5°
Sets 05:42:41 0° 60° (ENE) 3,634 9.8 7.0°
